QPF
0.00 0.00 0.00 0.00 0.00 0.00 0.04 0.02 0.00 0.06 0.03 0.01 0.04 0.05 0.08 0.07 0.04 0.00 0.00 0.00 0.00 0.00 0.00 0.00 0.00 0.00 0.00 0.00 0.00 0.00 0.00 0.00 0.00 0.00 0.00 0.00 0.00 0.00 0.00 0.00 0.00 0.00 0.00
0.00 0.00 0.00 0.00 0.00 0.00 0.03 0.09 0.02 0.00 0.03 0.01 0.03 0.03 0.08 0.02 0.04 0.03 0.07 0.03 0.01 0.01 0.00 0.00 0.00 0.00 0.00 0.00 0.00 0.00 0.00 0.00 0.00 0.00 0.00 0.00 0.00 0.00 0.00 0.00 0.00 0.00 0.00
0.00 0.00 0.00 0.00 0.00 0.00 0.01 0.04 0.05 0.02 0.00 0.00 0.02 0.02 0.06 0.02 0.01 0.03 0.07 0.10 0.13 0.04 0.02 0.01 0.00 0.00 0.00 0.00 0.00 0.00 0.00 0.00 0.00 0.00 0.00 0.00 0.00 0.00 0.00 0.00 0.00 0.00 0.00
0.00 0.00 0.00 0.01 0.02 0.01 0.02 0.01 0.02 0.01 0.04 0.02 0.00 0.01 0.04 0.07 0.06 0.04 0.04 0.02 0.16 0.15 0.15 0.12 0.05 0.01 0.00 0.00 0.00 0.00 0.00 0.00 0.00 0.00 0.00 0.00 0.00 0.00 0.00 0.00 0.00 0.00 0.00
0.00 0.00 0.00 0.00 0.01 0.01 0.01 0.00 0.00 0.00 0.02 0.02 0.03 0.05 0.03 0.08 0.08 0.03 0.03 0.01 0.05 0.13 0.13 0.10 0.08 0.06 0.01 0.01 0.00 0.00 0.00 0.00 0.00 0.00 0.00 0.00 0.00 0.00 0.00 0.00 0.00 0.00 0.00
0.00 0.00 0.00 0.00 0.01 0.00 0.00 0.00 0.00 0.00 0.01 0.02 0.03 0.05 0.02 0.05 0.07 0.05 0.03 0.02 0.00 0.01 0.01 0.04 0.04 0.04 0.02 0.00 0.01 0.00 0.00 0.00 0.00 0.00 0.00 0.00 0.00 0.00 0.00 0.00 0.00 0.00 0.00
0.00 0.00 0.00 0.00 0.00 0.00 0.00 0.00 0.00 0.00 0.00 0.00 0.01 0.02 0.04 0.04 0.03 0.06 0.07 0.07 0.03 0.01 0.01 0.01 0.01 0.00 0.00 0.00 0.00 0.00 0.00 0.00 0.00 0.00 0.00 0.00 0.00 0.00 0.00 0.00 0.00 0.00 0.00
0.00 0.00 0.00 0.00 0.00 0.00 0.00 0.00 0.00 0.00 0.00 0.00 0.00 0.00 0.01 0.01 0.01 0.01 0.00 0.00 0.00 0.00 0.00 0.00 0.00 0.00 0.00 0.00 0.00 0.00 0.00 0.00 0.00 0.00 0.00 0.00 0.00 0.00 0.00 0.00 0.00 0.00 0.00
0.00 0.00 0.00 0.00 0.00 0.00 0.00 0.00 0.00 0.00 0.00 0.00 0.00 0.00 0.00 0.00 0.00 0.00 0.00 0.00 0.00 0.00 0.00 0.00 0.00 0.00 0.00 0.00 0.00 0.00 0.00 0.00 0.00 0.00 0.00 0.00 0.00 0.00 0.00 0.00 0.00 0.00 0.00
0.00 0.00 0.00 0.00 0.00 0.00 0.00 0.00 0.00 0.00 0.00 0.00 0.00 0.00 0.00 0.00 0.00 0.00 0.00 0.00 0.00 0.00 0.00 0.00 0.00 0.00 0.00 0.00 0.00 0.00 0.00 0.00 0.00 0.00 0.00 0.00 0.00 0.00 0.00 0.00 0.00 0.00 0.00
0.00 0.00 0.00 0.00 0.00 0.00 0.00 0.00 0.00 0.00 0.00 0.00 0.00 0.00 0.00 0.00 0.00 0.00 0.00 0.00 0.00 0.00 0.00 0.00 0.00 0.00 0.00 0.00 0.00 0.00 0.00 0.00 0.00 0.00 0.00 0.00 0.00 0.00 0.00 0.00 0.00 0.00 0.00
0.00 0.00 0.00 0.00 0.00 0.00 0.00 0.00 0.00 0.00 0.00 0.00 0.00 0.00 0.00 0.00 0.00 0.00 0.00 0.00 0.00 0.00 0.00 0.00 0.00 0.00 0.00 0.00 0.00 0.00 0.00 0.00 0.00 0.00 0.00 0.00 0.00 0.00 0.00 0.00 0.00 0.00 0.00
0.00 0.00 0.00 0.00 0.00 0.00 0.00 0.00 0.00 0.00 0.00 0.00 0.00 0.00 0.00 0.00 0.00 0.00 0.00 0.00 0.00 0.00 0.00 0.00 0.00 0.00 0.00 0.00 0.00 0.00 0.00 0.00 0.00 0.00 0.00 0.00 0.00 0.00 0.00 0.00 0.00 0.00 0.00
0.00 0.00 0.00 0.00 0.00 0.00 0.00 0.00 0.00 0.00 0.00 0.00 0.00 0.00 0.00 0.00 0.00 0.00 0.00 0.00 0.00 0.00 0.00 0.00 0.00 0.00 0.00 0.00 0.00 0.00 0.00 0.00 0.00 0.00 0.00 0.00 0.00 0.00 0.00 0.00 0.00 0.00 0.00
0.00 0.00 0.00 0.00 0.00 0.00 0.00 0.00 0.00 0.00 0.00 0.00 0.00 0.00 0.00 0.00 0.00 0.00 0.00 0.00 0.00 0.00 0.00 0.00 0.00 0.00 0.00 0.00 0.00 0.00 0.00 0.00 0.00 0.00 0.00 0.00 0.00 0.00 0.00 0.00 0.00 0.00 0.00
0.00 0.00 0.00 0.00 0.00 0.00 0.00 0.00 0.00 0.00 0.00 0.00 0.00 0.00 0.00 0.00 0.00 0.00 0.00 0.00 0.00 0.00 0.00 0.00 0.00 0.00 0.00 0.00 0.00 0.00 0.00 0.00 0.00 0.00 0.00 0.00 0.00 0.00 0.00 0.00 0.00 0.00 0.00
0.00 0.00 0.00 0.00 0.00 0.00 0.00 0.00 0.00 0.00 0.00 0.00 0.00 0.00 0.00 0.00 0.00 0.00 0.00 0.00 0.00 0.00 0.00 0.00 0.00 0.00 0.00 0.00 0.00 0.00 0.00 0.00 0.00 0.00 0.00 0.00 0.00 0.00 0.00 0.00 0.00 0.00 0.00
0.00 0.00 0.00 0.00 0.00 0.00 0.00 0.00 0.00 0.00 0.00 0.00 0.00 0.00 0.00 0.00 0.00 0.00 0.00 0.00 0.00 0.00 0.00 0.00 0.00 0.00 0.00 0.00 0.00 0.00 0.00 0.00 0.00 0.00 0.00 0.00 0.00 0.00 0.00 0.00 0.00 0.00 0.00
0.00 0.00 0.00 0.00 0.00 0.00 0.00 0.00 0.00 0.00 0.00 0.00 0.00 0.00 0.00 0.00 0.00 0.00 0.00 0.00 0.00 0.00 0.00 0.00 0.00 0.00 0.00 0.00 0.00 0.00 0.00 0.00 0.00 0.00 0.00 0.00 0.00 0.00 0.00 0.00 0.00 0.00 0.00
0.00 0.00 0.00 0.00 0.00 0.00 0.00 0.00 0.00 0.00 0.00 0.00 0.00 0.00 0.00 0.00 0.00 0.00 0.00 0.00 0.00 0.00 0.00 0.00 0.00 0.00 0.00 0.00 0.00 0.00 0.00 0.00 0.00 0.00 0.00 0.00 0.00 0.00 0.00 0.00 0.00 0.00 0.00
0.00 0.00 0.00 0.00 0.00 0.00 0.00 0.00 0.00 0.00 0.00 0.00 0.00 0.00 0.00 0.00 0.00 0.00 0.00 0.00 0.00 0.00 0.00 0.00 0.00 0.00 0.00 0.00 0.00 0.00 0.00 0.00 0.00 0.00 0.00 0.00 0.00 0.00 0.00 0.00 0.00 0.00 0.00
0.00 0.00 0.00 0.00 0.00 0.00 0.00 0.00 0.00 0.00 0.00 0.00 0.00 0.00 0.00 0.00 0.00 0.00 0.00 0.00 0.00 0.00 0.00 0.00 0.00 0.00 0.00 0.00 0.00 0.00 0.00 0.00 0.00 0.00 0.00 0.00 0.00 0.00 0.00 0.00 0.00 0.00 0.00
0.00 0.00 0.00 0.00 0.00 0.00 0.00 0.00 0.00 0.00 0.00 0.00 0.00 0.00 0.00 0.00 0.00 0.00 0.00 0.00 0.00 0.00 0.00 0.00 0.00 0.00 0.00 0.00 0.00 0.00 0.00 0.00 0.00 0.00 0.00 0.00 0.00 0.00 0.00 0.00 0.00 0.00 0.00
0.00 0.00 0.00 0.00 0.00 0.00 0.00 0.00 0.00 0.00 0.00 0.00 0.00 0.00 0.00 0.00 0.00 0.00 0.00 0.00 0.00 0.00 0.00 0.00 0.00 0.00 0.00 0.00 0.00 0.00 0.00 0.00 0.00 0.00 0.00 0.00 0.00 0.00 0.00 0.00 0.00 0.00 0.00
0.00 0.00 0.00 0.00 0.00 0.00 0.00 0.00 0.00 0.00 0.00 0.00 0.00 0.00 0.00 0.00 0.00 0.00 0.00 0.00 0.00 0.00 0.00 0.00 0.00 0.00 0.00 0.00 0.00 0.00 0.00 0.00 0.00 0.00 0.00 0.00 0.00 0.00 0.00 0.00 0.00 0.00 0.00
0.00 0.00 0.00 0.00 0.00 0.00 0.00 0.00 0.00 0.00 0.00 0.00 0.00 0.00 0.00 0.00 0.00 0.00 0.00 0.00 0.00 0.00 0.00 0.00 0.00 0.00 0.00 0.00 0.00 0.00 0.00 0.00 0.00 0.00 0.00 0.00 0.00 0.00 0.00 0.00 0.00 0.00 0.00
MSLP
1008.56 1009.11 1010.38 1010.55 1010.64 1011.38 1011.86 1012.44 1013.16 1013.81 1014.59 1015.09 1015.48 1015.81 1016.11 1016.29 1016.29 1016.57 1016.88 1017.05 1017.15 1017.47 1017.86 1018.14 1018.20 1018.50 1018.95 1019.25 1019.52 1019.85 1020.08 1020.23 1020.54 1020.53 1020.35 1020.09 1019.95 1019.94 1019.90 1019.85 1019.88 1019.83 1020.31
1008.18 1008.50 1009.82 1010.51 1010.29 1011.06 1011.74 1012.32 1012.87 1013.50 1014.22 1014.96 1015.36 1015.67 1015.88 1016.31 1016.47 1016.75 1016.82 1017.06 1017.27 1017.40 1017.52 1017.80 1018.14 1018.23 1018.66 1019.08 1019.32 1019.62 1019.90 1020.14 1020.19 1020.30 1020.10 1019.96 1019.45 1019.44 1019.48 1019.53 1019.81 1020.00 1020.28
1007.88 1007.93 1009.24 1010.46 1010.49 1010.93 1011.62 1012.15 1012.60 1012.93 1013.97 1014.70 1015.23 1015.82 1016.09 1016.29 1016.69 1016.87 1017.08 1017.19 1017.61 1017.58 1017.76 1017.81 1018.09 1018.23 1018.44 1018.81 1019.16 1019.43 1019.75 1019.82 1019.93 1020.16 1020.29 1020.14 1019.82 1019.65 1019.66 1020.01 1020.17 1020.40 1020.66
1007.80 1007.76 1008.92 1010.18 1010.77 1011.30 1012.01 1012.08 1012.34 1013.73 1014.10 1014.49 1015.01 1015.40 1015.42 1015.60 1016.11 1015.96 1016.47 1016.91 1017.15 1017.54 1018.04 1018.28 1018.42 1018.21 1018.31 1018.60 1018.82 1019.05 1019.30 1019.70 1019.73 1020.05 1020.16 1019.99 1020.10 1020.13 1020.02 1020.22 1020.42 1020.85 1021.09
1007.67 1007.90 1008.67 1010.16 1010.82 1011.49 1012.30 1012.78 1012.50 1013.32 1014.43 1014.68 1015.07 1015.25 1015.22 1015.46 1016.08 1015.83 1016.63 1016.75 1016.42 1017.04 1017.60 1018.17 1018.65 1018.45 1018.11 1018.25 1018.46 1018.78 1018.98 1019.23 1019.43 1019.45 1019.74 1020.11 1020.27 1020.65 1020.79 1020.52 1020.57 1020.92 1021.47
1007.41 1007.57 1009.04 1010.06 1010.92 1011.57 1012.48 1012.98 1012.86 1013.13 1013.73 1014.66 1014.92 1015.03 1015.74 1015.27 1015.59 1015.98 1016.30 1016.19 1016.22 1016.78 1017.05 1017.47 1017.58 1017.78 1017.72 1017.82 1018.10 1018.41 1018.67 1018.88 1018.94 1019.14 1019.34 1019.76 1020.09 1020.28 1020.56 1020.73 1020.88 1021.08 1021.54
1007.26 1007.79 1008.37 1009.88 1010.79 1011.65 1012.35 1013.03 1013.22 1013.45 1014.15 1014.61 1014.86 1015.06 1015.39 1014.46 1015.92 1015.93 1016.92 1016.70 1016.56 1016.73 1016.78 1017.14 1017.61 1017.72 1017.65 1017.71 1017.71 1018.07 1018.30 1018.56 1018.72 1018.95 1019.20 1019.48 1019.64 1019.68 1020.21 1020.60 1020.84 1021.19 1021.51
1007.01 1007.60 1008.09 1009.04 1010.28 1011.38 1012.29 1012.77 1013.47 1013.97 1014.14 1014.52 1014.80 1014.99 1015.41 1015.76 1016.14 1016.05 1016.79 1016.76 1016.76 1016.86 1017.07 1017.71 1017.89 1017.60 1017.67 1017.84 1017.86 1018.15 1018.32 1018.46 1018.63 1018.92 1019.18 1019.50 1019.70 1020.08 1020.36 1020.67 1021.00 1021.56 1021.70
1006.95 1007.35 1008.04 1008.56 1009.46 1011.28 1012.01 1012.23 1012.87 1013.96 1014.39 1014.70 1014.79 1015.25 1015.92 1016.05 1016.45 1016.85 1016.73 1017.24 1017.34 1017.56 1017.97 1017.95 1017.94 1017.88 1017.81 1017.74 1017.82 1018.04 1018.23 1018.44 1018.51 1018.92 1019.40 1019.76 1020.18 1020.63 1020.79 1021.05 1021.40 1021.58 1021.76
1007.57 1007.86 1008.13 1008.59 1009.63 1010.93 1011.89 1012.63 1012.38 1013.27 1014.44 1014.98 1015.50 1015.86 1016.09 1016.38 1016.79 1017.10 1017.63 1017.87 1017.75 1018.12 1018.36 1018.15 1018.23 1018.22 1018.14 1018.13 1018.12 1018.32 1018.53 1018.71 1019.00 1019.36 1019.87 1020.28 1020.43 1020.94 1021.11 1021.25 1021.64 1021.93 1021.99
1007.86 1008.14 1008.62 1009.00 1009.85 1011.06 1011.95 1012.72 1013.07 1013.37 1015.01 1015.43 1015.94 1016.40 1016.65 1016.95 1017.27 1017.62 1018.11 1018.32 1018.42 1018.67 1018.59 1018.54 1018.38 1018.47 1018.46 1018.69 1018.51 1018.64 1018.94 1019.06 1019.38 1019.69 1020.08 1020.38 1020.83 1021.20 1021.42 1021.62 1021.79 1021.94 1022.23
1008.48 1008.71 1009.00 1009.90 1010.68 1011.66 1012.43 1013.07 1013.67 1014.38 1015.00 1015.41 1015.96 1016.79 1017.24 1017.16 1017.48 1018.13 1018.34 1018.46 1018.54 1018.82 1018.88 1018.85 1018.62 1018.76 1018.96 1018.78 1018.72 1018.96 1019.08 1019.40 1019.58 1019.86 1020.39 1020.67 1021.10 1021.40 1021.69 1021.89 1022.00 1022.09 1022.60
1009.07 1009.34 1009.82 1010.50 1011.21 1011.90 1012.65 1013.37 1013.99 1014.63 1015.27 1015.70 1016.27 1016.77 1017.28 1017.46 1017.89 1018.10 1018.58 1018.56 1018.93 1018.86 1019.01 1019.11 1019.22 1019.36 1019.41 1019.25 1019.09 1019.06 1019.38 1019.44 1019.80 1020.07 1020.48 1020.83 1021.17 1021.45 1022.05 1022.22 1022.69 1022.59 1022.95
1009.36 1009.67 1010.16 1010.70 1011.34 1012.06 1012.74 1013.40 1014.05 1014.72 1015.33 1015.92 1016.48 1016.95 1017.40 1017.80 1018.27 1018.50 1018.79 1018.90 1019.00 1019.29 1019.38 1019.52 1019.75 1019.94 1019.80 1019.76 1019.51 1019.43 1019.67 1019.90 1020.31 1020.66 1020.82 1021.16 1021.41 1021.86 1022.28 1022.46 1022.60 1022.69 1022.84
1009.55 1009.94 1010.30 1010.81 1011.51 1012.25 1012.89 1013.45 1014.16 1014.83 1015.55 1016.13 1016.60 1017.06 1017.72 1018.14 1018.49 1018.77 1018.87 1019.17 1019.40 1019.70 1019.90 1019.76 1020.02 1019.93 1020.26 1020.16 1019.84 1019.79 1020.09 1020.52 1020.97 1021.39 1021.50 1021.98 1022.18 1021.99 1022.28 1022.66 1022.73 1022.54 1023.33
1009.69 1010.05 1010.48 1010.88 1011.55 1012.19 1012.80 1013.60 1014.35 1014.96 1015.51 1016.05 1016.58 1017.30 1017.74 1018.26 1018.58 1018.97 1019.15 1019.50 1019.75 1019.99 1020.06 1020.07 1020.09 1020.07 1020.41 1020.48 1020.51 1020.58 1020.72 1021.12 1021.33 1021.54 1022.11 1022.33 1022.53 1022.67 1022.83 1023.10 1023.34 1023.10 1023.47
1009.46 1009.97 1010.40 1010.85 1011.36 1012.01 1012.77 1013.60 1014.33 1015.00 1015.60 1016.10 1016.69 1017.27 1017.74 1018.21 1018.62 1019.02 1019.35 1019.75 1019.94 1020.27 1020.44 1020.57 1020.39 1020.31 1020.55 1020.71 1020.82 1021.16 1021.38 1021.76 1022.10 1022.28 1022.42 1022.75 1022.62 1023.00 1023.49 1023.43 1023.63 1023.72 1023.83
1009.28 1009.75 1010.24 1010.72 1011.28 1011.98 1012.79 1013.50 1014.22 1014.97 1015.60 1016.14 1016.75 1017.25 1017.64 1018.14 1018.70 1019.22 1019.54 1020.11 1020.29 1020.62 1020.87 1020.90 1020.82 1020.84 1020.87 1021.04 1021.20 1021.68 1022.14 1022.46 1022.67 1022.65 1022.74 1022.82 1022.89 1023.26 1023.75 1023.68 1023.99 1024.23 1024.40
1009.08 1009.48 1010.00 1010.49 1011.18 1011.97 1012.76 1013.50 1014.28 1014.93 1015.55 1016.02 1016.59 1017.17 1017.70 1018.19 1018.77 1019.37 1020.02 1020.36 1020.68 1020.99 1021.13 1021.06 1021.15 1021.16 1021.16 1021.38 1021.70 1021.79 1022.24 1022.77 1023.24 1023.06 1022.92 1022.74 1023.18 1023.60 1023.81 1024.01 1024.22 1024.48 1024.80
1009.66 1009.67 1009.99 1010.53 1011.20 1011.95 1012.75 1013.52 1014.17 1014.78 1015.29 1015.99 1016.53 1017.10 1017.73 1018.16 1018.78 1019.40 1019.99 1020.58 1020.93 1021.08 1021.17 1021.37 1021.50 1021.27 1021.41 1021.62 1022.05 1021.87 1022.20 1022.54 1023.29 1023.46 1023.18 1023.10 1023.18 1023.89 1024.10 1024.11 1024.19 1024.51 1024.84
1010.95 1011.02 1010.73 1011.08 1011.60 1012.21 1012.93 1013.64 1014.12 1014.65 1015.32 1016.01 1016.60 1017.19 1017.83 1018.38 1018.86 1019.60 1020.18 1020.53 1020.84 1021.22 1021.47 1021.45 1021.28 1021.33 1021.53 1021.86 1022.06 1022.05 1022.25 1022.35 1023.22 1023.32 1023.28 1023.54 1023.67 1024.01 1024.22 1024.20 1024.23 1024.41 1024.73
1011.72 1011.83 1011.79 1012.06 1012.63 1012.98 1013.57 1013.99 1014.44 1014.99 1015.54 1016.13 1016.79 1017.38 1017.99 1018.50 1019.06 1019.66 1020.14 1020.53 1020.86 1021.14 1021.39 1021.41 1021.37 1021.38 1021.49 1021.53 1021.89 1022.14 1022.35 1022.49 1023.12 1023.24 1023.29 1023.53 1023.79 1023.97 1024.11 1024.56 1024.54 1024.69 1024.83
1012.30 1012.44 1012.48 1012.79 1013.31 1013.67 1013.93 1014.13 1014.64 1015.19 1015.74 1016.24 1016.81 1017.35 1017.91 1018.45 1018.97 1019.44 1019.87 1020.34 1020.67 1020.95 1021.17 1021.18 1021.14 1021.15 1021.25 1021.42 1021.65 1022.04 1022.49 1022.83 1022.86 1023.11 1023.33 1023.39 1023.65 1023.97 1024.23 1024.44 1024.58 1024.75 1025.17
1012.82 1012.95 1013.04 1013.32 1013.72 1014.04 1014.23 1014.31 1014.74 1015.22 1015.68 1016.22 1016.67 1017.21 1017.76 1018.31 1018.82 1019.23 1019.56 1019.95 1020.28 1020.62 1020.81 1020.86 1020.78 1020.79 1021.14 1021.34 1021.61 1022.12 1022.49 1022.74 1023.04 1023.30 1023.48 1023.46 1023.70 1023.99 1024.23 1024.32 1024.60 1024.82 1025.02
1013.45 1013.49 1013.56 1013.64 1013.74 1014.11 1014.41 1014.62 1015.05 1015.40 1015.81 1016.14 1016.54 1017.14 1017.73 1018.17 1018.62 1019.01 1019.27 1019.56 1019.75 1020.02 1020.31 1020.46 1020.51 1020.59 1020.86 1021.13 1021.51 1021.79 1022.13 1022.51 1022.79 1023.13 1023.26 1023.47 1023.80 1024.06 1024.16 1024.29 1024.35 1024.63 1024.85
1014.02 1014.06 1014.14 1014.17 1014.25 1014.43 1014.62 1014.97 1015.36 1015.59 1015.86 1016.09 1016.44 1017.10 1017.63 1017.97 1018.35 1018.72 1019.10 1019.28 1019.50 1019.74 1019.97 1020.14 1020.21 1020.32 1020.56 1020.86 1021.22 1021.58 1021.88 1022.10 1022.44 1022.83 1023.06 1023.30 1023.55 1023.69 1023.83 1023.98 1024.20 1024.39 1024.54
Thickness
5672 5675 5671 5677 5684 5684 5686 5689 5686 5686 5685 5684 5682 5683 5682 5683 5687 5687 5686 5686 5687 5687 5686 5684 5683 5683 5681 5680 5678 5675 5672 5671 5669 5668 5668 5670 5669 5668 5665 5661 5658 5655 5649
5664 5666 5669 5668 5677 5678 5679 5679 5680 5679 5680 5679 5679 5679 5680 5677 5678 5678 5680 5680 5680 5680 5680 5679 5679 5679 5678 5675 5674 5672 5668 5666 5667 5662 5663 5657 5664 5666 5664 5659 5653 5648 5642
5656 5662 5660 5659 5665 5669 5672 5673 5673 5678 5674 5673 5672 5671 5671 5671 5669 5670 5671 5672 5671 5673 5672 5673 5672 5671 5672 5670 5668 5667 5663 5661 5662 5660 5655 5648 5648 5653 5655 5649 5645 5640 5634
5653 5657 5653 5651 5652 5657 5659 5665 5668 5661 5665 5665 5667 5667 5668 5666 5666 5671 5669 5665 5667 5666 5664 5662 5661 5663 5665 5663 5663 5663 5661 5657 5654 5655 5652 5653 5649 5641 5639 5642 5638 5630 5625
5646 5647 5647 5643 5645 5648 5647 5651 5660 5658 5655 5657 5659 5660 5662 5663 5659 5664 5658 5659 5666 5663 5658 5655 5652 5655 5656 5658 5658 5656 5656 5655 5652 5651 5649 5644 5641 5635 5629 5626 5627 5624 5615
5642 5645 5638 5636 5635 5639 5638 5639 5647 5650 5652 5647 5649 5650 5644 5653 5653 5652 5649 5655 5659 5656 5654 5653 5653 5653 5654 5653 5652 5651 5652 5650 5649 5647 5644 5639 5633 5629 5624 5619 5617 5614 5608
5638 5636 5634 5628 5628 5626 5628 5627 5633 5637 5636 5637 5639 5640 5641 5653 5640 5645 5640 5643 5645 5647 5648 5646 5643 5644 5645 5646 5647 5647 5646 5644 5642 5640 5638 5634 5632 5629 5624 5617 5612 5607 5602
5636 5633 5631 5628 5623 5620 5617 5620 5619 5622 5626 5627 5628 5632 5631 5631 5631 5634 5629 5634 5637 5638 5636 5632 5630 5634 5635 5636 5638 5637 5637 5637 5636 5633 5630 5626 5623 5618 5612 5609 5603 5595 5593
5630 5630 5627 5628 5627 5613 5614 5618 5618 5613 5615 5617 5620 5620 5617 5620 5619 5617 5622 5619 5621 5621 5618 5618 5621 5622 5626 5628 5630 5630 5630 5629 5629 5625 5620 5616 5611 5604 5600 5596 5591 5589 5587
5618 5619 5621 5623 5620 5613 5610 5609 5614 5611 5606 5607 5606 5606 5607 5608 5607 5607 5604 5604 5608 5607 5606 5611 5611 5613 5615 5617 5619 5618 5618 5617 5615 5611 5606 5602 5599 5593 5589 5587 5580 5575 5574
5613 5614 5613 5616 5613 5607 5604 5602 5602 5602 5592 5593 5591 5591 5592 5592 5592 5592 5590 5590 5592 5591 5595 5598 5601 5602 5604 5603 5607 5607 5605 5605 5602 5600 5596 5592 5587 5582 5579 5575 5571 5567 5562
5606 5606 5607 5602 5600 5595 5593 5592 5589 5585 5584 5582 5582 5576 5574 5579 5580 5577 5578 5580 5582 5581 5583 5586 5590 5590 5590 5593 5595 5594 5594 5592 5591 5589 5584 5580 5575 5571 5567 5564 5561 5558 5549
5596 5598 5596 5592 5589 5587 5585 5582 5580 5577 5574 5572 5570 5567 5565 5567 5566 5568 5566 5570 5568 5571 5572 5574 5575 5575 5575 5578 5581 5584 5581 5582 5579 5577 5573 5569 5564 5561 5554 5551 5544 5544 5538
5589 5591 5590 5588 5586 5583 5581 5578 5575 5570 5566 5562 5559 5558 5556 5555 5553 5554 5554 5557 5558 5558 5560 5560 5560 5560 5563 5565 5567 5570 5569 5568 5564 5561 5560 5556 5553 5547 5541 5539 5537 5535 5532
5582 5583 5584 5584 5581 5577 5574 5572 5567 5563 5557 5553 5550 5547 5542 5540 5540 5541 5543 5543 5544 5544 5543 5548 5547 5550 5548 5550 5555 5557 5555 5552 5548 5544 5544 5539 5536 5537 5533 5527 5527 5529 5519
5576 5578 5578 5578 5574 5571 5568 5563 5557 5553 5548 5545 5541 5535 5532 5530 5529 5528 5530 5529 5530 5531 5533 5534 5536 5538 5536 5536 5538 5539 5539 5536 5535 5534 5529 5527 5524 5522 5520 5517 5513 5516 5511
5575 5573 5572 5571 5570 5566 5562 5555 5550 5544 5538 5534 5529 5524 5522 5520 5519 5518 5518 5517 5518 5519 5520 5520 5523 5525 5524 5523 5523 5522 5521 5519 5517 5516 5516 5513 5514 5509 5505 5505 5504 5503 5501
5571 5570 5568 5566 5563 5559 5553 5548 5543 5535 5529 5524 5519 5515 5513 5511 5508 5506 5506 5504 5505 5505 5505 5506 5508 5510 5511 5510 5510 5508 5504 5502 5502 5503 5503 5503 5502 5499 5494 5495 5493 5491 5490
5569 5567 5565 5562 5557 5551 5545 5539 5533 5526 5519 5516 5512 5508 5505 5502 5499 5496 5492 5492 5492 5491 5491 5494 5495 5497 5499 5497 5495 5497 5493 5489 5486 5490 5490 5494 5490 5488 5485 5484 5483 5482 5479
5559 5560 5559 5555 5550 5544 5538 5532 5526 5521 5514 5508 5505 5501 5496 5494 5491 5488 5484 5481 5481 5481 5481 5480 5481 5485 5485 5484 5481 5484 5483 5481 5476 5477 5479 5481 5481 5476 5476 5476 5476 5474 5472
5538 5540 5545 5543 5540 5536 5529 5524 5520 5515 5509 5502 5496 5492 5487 5484 5482 5477 5474 5472 5472 5470 5469 5470 5474 5475 5474 5471 5470 5471 5472 5473 5466 5467 5469 5469 5468 5467 5467 5468 5468 5467 5464
5526 5525 5528 5526 5522 5520 5516 5513 5509 5504 5499 5495 5489 5484 5479 5476 5472 5467 5464 5462 5460 5460 5460 5461 5462 5464 5464 5464 5462 5462 5462 5461 5457 5458 5460 5460 5460 5460 5460 5458 5458 5457 5455
5515 5515 5516 5513 5508 5506 5506 5506 5502 5497 5491 5487 5483 5478 5474 5470 5466 5462 5459 5455 5454 5452 5451 5452 5454 5455 5455 5455 5454 5452 5450 5449 5451 5451 5452 5453 5454 5453 5452 5451 5450 5448 5445
5505 5505 5505 5503 5499 5497 5496 5498 5494 5490 5486 5482 5478 5474 5469 5464 5460 5457 5454 5451 5448 5445 5444 5445 5448 5449 5446 5446 5445 5442 5441 5441 5442 5442 5442 5446 5446 5445 5444 5444 5442 5441 5439
5493 5493 5494 5495 5495 5491 5489 5488 5484 5481 5478 5476 5473 5467 5462 5458 5454 5451 5448 5446 5444 5441 5439 5439 5440 5441 5438 5438 5437 5436 5436 5435 5435 5434 5436 5437 5437 5436 5436 5436 5436 5434 5432
5482 5483 5482 5481 5482 5481 5479 5477 5474 5472 5470 5469 5467 5460 5454 5452 5449 5446 5442 5441 5438 5436 5434 5434 5434 5433 5433 5432 5431 5430 5430 5429 5429 5429 5431 5431 5431 5432 5432 5432 5430 5427 5426